Home   Weather   La Plata   Past weeks
Flag for Argentina

Past Weather in La Plata, Buenos Aires, Argentina — Yesterday and Last 2 Weeks

Now
49 °F

Overcast.


Feels Like: 47 °F
Forecast: 62 / 50 °F
Wind: 7 mph from Southeast

Location: Ezeiza Aerodrome

Current Time: May 20, 2019 at 9:48:47 am

Latest Report: May 20, 2019 at 8:00 am


Visibility: 6 mi

Pressure: 30.08 "Hg

Humidity: 94%

Dew Point: 48 °F

Location of La PlataLocation

Past Weather in La Plata — Graph

°F

La Plata Temperature Yesterday

Maximum temperature yesterday: 61 °F (at 4:00 pm)
Minimum temperature yesterday: 47 °F (at 11:00 pm)
Average temperature yesterday: 55 °F

High & Low Weather Summary for the Past Weeks

 TemperatureHumidityPressure
High77 °F (May 18, 3:00 pm)100% (May 5, 8:00 am)30.46 "Hg (May 5, 8:00 am)
Low42 °F (May 14, 8:00 am)35% (May 12, 4:00 pm)29.63 "Hg (May 9, 4:00 pm)
Average59 °F80%30.09 "Hg
* Reported May 5 8:00 am — May 20 8:00 am, La Plata. Weather by CustomWeather, © 2019

Note: Actual official high and low records may vary slightly from our data, if they occured in-between our weather recording intervals... More about our weather records

Advertising

La Plata Weather History for the Previous 24 Hours

Scroll right to see more
 ConditionsComfort  
Time TempWeatherWind HumidityBarometerVisibility
8:00 am
Mon, May 20
49 °FOvercast.7 mph94%30.08 "Hg6 mi
7:00 am50 °FOvercast.6 mph95%30.07 "Hg6 mi
6:00 am49 °FOvercast.6 mph96%30.07 "Hg6 mi
5:00 am48 °FPassing clouds.6 mph95%30.06 "Hg6 mi
4:00 am49 °FFog.6 mph95%30.08 "Hg4 mi
3:00 am48 °FFog.6 mph97%30.09 "Hg2 mi
2:00 am47 °FFog.2 mph97%30.09 "Hg1 mi
1:00 am48 °FFog.2 mph96%30.09 "Hg1 mi
12:00 am47 °FFog.2 mph99%30.11 "Hg1 mi
11:00 pm
Sun, May 19
47 °FFog.5 mph99%30.10 "Hg1 mi
10:00 pm48 °FFog.3 mph95%30.09 "Hg2 mi
9:00 pm51 °FFog.3 mph94%30.08 "Hg3 mi
8:00 pm54 °FPassing clouds.5 mph94%30.08 "Hg6 mi
7:00 pm56 °FPassing clouds.5 mph89%30.06 "Hg6 mi
6:00 pm58 °FPassing clouds.3 mph80%30.05 "Hg6 mi
5:00 pm61 °FPassing clouds.5 mph76%30.05 "Hg6 mi
4:00 pm61 °FScattered clouds.5 mph76%30.05 "Hg6 mi
3:00 pm58 °FScattered clouds.5 mph84%30.05 "Hg6 mi
2:00 pm57 °FOvercast.3 mph88%30.07 "Hg6 mi
1:00 pm56 °FFog.5 mph92%30.09 "Hg5 mi
12:00 pm55 °FFog.5 mph92%30.10 "Hg3 mi
11:00 am53 °FFog.5 mph96%30.10 "Hg2 mi
10:00 am52 °FFog.7 mph96%30.10 "Hg1 mi
9:00 am52 °FFog.6 mph96%30.09 "Hg1 mi
Weather by CustomWeather, © 2019

See weather overview